General Aviation Weather

Text Reports

Enter one or more of the following location identifiers separated by a space:

Zip Code, Four-Character ICAO or Three-Character IATA airport codes.

METAR - Aviation Routine Weather Report
OIBL - Bandar Lengeh,
Updated at 5:00 PM GMT on May 28, 2015 (9:30 PM IRDT):
METAR OIBL 281700Z 26006KT 5000 HZ NSC 30/21 Q1000
TAF - Terminal Area Forecast
OIBL - Bandar Lengeh,
Updated at 5:00 PM GMT on May 28, 2015 (9:30 PM IRDT):
No TAF is currently available for this location.
Decoded:
No decoded TAF is available.
PIREP - Pilot Weather Report
OIBL - Bandar Lengeh,
Updated at 5:00 PM GMT on May 28, 2015 (9:30 PM IRDT):
No PIREP is currently available for this location.
AIRMET - Airmens Meteorological Information
OIBL - Bandar Lengeh,
Updated at 5:00 PM GMT on May 28, 2015 (9:30 PM IRDT):
No AIRMET is currently available for this location.
SIGMET - Significant Meteorological Information
OIBL - Bandar Lengeh,
Updated at 5:00 PM GMT on May 28, 2015 (9:30 PM IRDT):
No SIGMET is currently available for this location.
NOTAM - Notice to Airmen
OIBL - Bandar Lengeh,
Updated at 5:00 PM GMT on May 28, 2015 (9:30 PM IRDT):
No NOTAM is currently available for this location.
Forecast Area
OIBL - Bandar Lengeh,
Updated at 5:00 PM GMT on May 28, 2015 (9:30 PM IRDT):
No NOTAM is currently available for this location.
Aviation Weather Maps